Weather History for Gilze-Rijen, Netherlands

Change the Weather History Date:

Saturday, November 3, 2012

  Actual Average Record
Temperature  
Mean Temperature 44 °F -  
Max Temperature 48 °F 46 °F 64 °F (2005)
Min Temperature 39 °F 36 °F 32 °F (2006)
Degree Days  
Heating Degree Days 22    
Moisture  
Dew Point 41 °F    
Average Humidity 90    
Maximum Humidity 100    
Minimum Humidity 76    
Precipitation  
Precipitation 0.00 in - - ()
Sea Level Pressure  
Sea Level Pressure 29.47 in    
Wind  
Wind Speed 8 mph ()    
Max Wind Speed 14 mph    
Max Gust Speed -    
Visibility 6.2 miles    
Events Rain    
Averages and records for this station are not official NWS values.
T = Trace of Precipitation, MM = Missing Value Source: Averaged Metar Reports

Daily Weather History Graph

Daily Weather History Graph

Search for Another Location

Airport:

Trip Planner

Search our weather history database for the weather conditions in past years. The results will help you decide how hot, cold, wet, or windy it might be!

Date:

Astronomy

Nov. 03, 2012 Rise Set
Actual Time 7:37 AM CET 5:08 PM CET
Civil Twilight 7:02 AM CET 5:44 PM CET
Nautical Twilight 6:22 AM CET 6:24 PM CET
Astronomical Twilight 5:43 AM CET 7:02 PM CET
Moon 8:22 PM CET (11/3) 11:44 AM CET (11/3)
Length of Visible Light 10h 41m
Length of Day
9h 30m
Waning Gibbous, 82% of the Moon is Illuminated
Nov 3
Waning Gibbous
Nov 7
Last Quarter
Nov 13
New
Nov 20
First Quarter
Nov 28
Full

Hourly Weather History & Observations

Time (CET) Temp. Windchill Dew Point Humidity Pressure Visibility Wind Dir Wind Speed Gust Speed Precip Events Conditions
12:25 AM 41.0 °F 36.4 °F 39.2 °F 93% 29.47 in 6.2 mi SSW 6.9 mph - N/A   Scattered Clouds
12:55 AM 42.8 °F 38.0 °F 39.2 °F 87% 29.47 in 6.2 mi SSW 8.1 mph - N/A   Overcast
1:25 AM 42.8 °F 37.5 °F 39.2 °F 87% 29.47 in 6.2 mi SSW 9.2 mph - N/A   Overcast
1:55 AM 42.8 °F 37.5 °F 39.2 °F 87% 29.47 in 6.2 mi SSW 9.2 mph - N/A   Overcast
2:25 AM 42.8 °F 38.0 °F 39.2 °F 87% 29.47 in 6.2 mi SSW 8.1 mph - N/A   Overcast
2:55 AM 41.0 °F 36.4 °F 39.2 °F 93% 29.47 in 6.2 mi SSW 6.9 mph - N/A   Mostly Cloudy
3:25 AM 39.2 °F 34.2 °F 37.4 °F 93% 29.47 in 6.2 mi SSW 6.9 mph - N/A   Mostly Cloudy
3:55 AM 39.2 °F 33.6 °F 39.2 °F 100% 29.47 in 6.2 mi SSW 8.1 mph - N/A   Mostly Cloudy
4:25 AM 39.2 °F 32.5 °F 39.2 °F 100% 29.47 in 6.2 mi SSW 10.4 mph - N/A   Partly Cloudy
4:55 AM 41.0 °F 34.3 °F 39.2 °F 93% 29.47 in 6.2 mi SSW 11.5 mph - N/A   Unknown
5:25 AM 41.0 °F 34.7 °F 39.2 °F 93% 29.47 in 6.2 mi SSW 10.4 mph - N/A   Overcast
5:55 AM 41.0 °F 35.2 °F 39.2 °F 93% 29.47 in 6.2 mi South 9.2 mph - N/A   Overcast
6:25 AM 41.0 °F 34.3 °F 39.2 °F 93% 29.47 in 6.2 mi SSW 11.5 mph - N/A   Overcast
6:55 AM 41.0 °F 34.7 °F 39.2 °F 93% 29.47 in 6.2 mi South 10.4 mph - N/A   Overcast
7:25 AM 41.0 °F 35.2 °F 39.2 °F 93% 29.47 in 6.2 mi South 9.2 mph - N/A   Overcast
7:55 AM 41.0 °F 36.4 °F 39.2 °F 93% 29.44 in 6.2 mi South 6.9 mph - N/A   Mostly Cloudy
8:25 AM 42.8 °F 37.0 °F 41.0 °F 93% 29.44 in 6.2 mi South 10.4 mph - N/A   Overcast
8:29 AM 42.8 °F 36.6 °F 41.0 °F 93% 29.44 in 6.2 mi South 11.5 mph - N/A   Overcast
8:55 AM 42.8 °F 35.8 °F 41.0 °F 93% 29.44 in 6.2 mi South 13.8 mph - N/A   Mostly Cloudy
8:59 AM 42.8 °F 35.8 °F 41.0 °F 93% 29.44 in 6.2 mi South 13.8 mph - N/A   Mostly Cloudy
9:00 AM 42.8 °F 35.8 °F 41.0 °F 93% 29.44 in 6.2 mi South 13.8 mph - N/A   Overcast
9:12 AM 44.6 °F 38.4 °F 41.0 °F 87% 29.44 in 6.2 mi South 12.7 mph - N/A   Light Drizzle
9:15 AM 44.6 °F 38.4 °F 42.8 °F 93% 29.44 in 6.2 mi South 12.7 mph - N/A   Drizzle
9:25 AM 44.6 °F 38.4 °F 42.8 °F 93% 29.44 in 6.2 mi South 12.7 mph - N/A   Mostly Cloudy
9:55 AM 44.6 °F 39.2 °F 42.8 °F 93% 29.44 in 6.2 mi South 10.4 mph - N/A Rain Light Rain
10:25 AM 44.6 °F 39.7 °F 42.8 °F 93% 29.44 in 6.2 mi South 9.2 mph - N/A Rain Light Rain Showers
10:29 AM 44.6 °F 39.7 °F 42.8 °F 93% 29.44 in 6.2 mi South 9.2 mph - N/A Rain Rain
10:35 AM 44.6 °F 39.7 °F 42.8 °F 93% 29.44 in 6.2 mi SSW 9.2 mph - N/A Rain Light Rain
10:39 AM 44.6 °F 39.7 °F 42.8 °F 93% 29.44 in 6.2 mi SSW 9.2 mph - N/A Rain Light Rain
10:45 AM 44.6 °F 40.2 °F 42.8 °F 93% 29.44 in 6.2 mi SSW 8.1 mph - N/A Rain Light Rain
10:49 AM 44.6 °F 40.7 °F 42.8 °F 93% 29.44 in 6.2 mi SSW 6.9 mph - N/A Rain Light Rain Showers
10:55 AM 44.6 °F 40.7 °F 42.8 °F 93% 29.44 in 6.2 mi SSW 6.9 mph - N/A Rain Light Rain
11:25 AM 44.6 °F 40.7 °F 42.8 °F 93% 29.44 in 6.2 mi South 6.9 mph - N/A Rain Rain
11:37 AM 44.6 °F 41.4 °F 44.6 °F 100% 29.44 in 6.2 mi South 5.8 mph - N/A Rain Light Rain Showers
11:42 AM 44.6 °F 40.7 °F 44.6 °F 100% 29.44 in 6.2 mi South 6.9 mph - N/A Rain Light Rain Showers
11:47 AM 44.6 °F 41.4 °F 44.6 °F 100% 29.44 in 6.2 mi South 5.8 mph - N/A Rain Light Rain
11:55 AM 46.4 °F 42.9 °F 44.6 °F 93% 29.42 in 6.2 mi South 6.9 mph - N/A Rain Light Rain Showers
12:25 PM 46.4 °F 42.4 °F 44.6 °F 93% 29.42 in 6.2 mi South 8.1 mph - N/A Rain Light Rain Showers
12:55 PM 46.4 °F 41.9 °F 44.6 °F 93% 29.42 in 6.2 mi SSW 9.2 mph - N/A   Overcast
1:25 PM 46.4 °F 41.5 °F 44.6 °F 93% 29.42 in 6.2 mi SSW 10.4 mph - N/A   Mostly Cloudy
1:37 PM 46.4 °F 41.1 °F 44.6 °F 93% 29.42 in 6.2 mi SSW 11.5 mph - N/A   Overcast
1:55 PM 46.4 °F 41.5 °F 44.6 °F 93% 29.42 in 6.2 mi SW 10.4 mph - N/A Rain Heavy Rain Showers
2:00 PM 46.4 °F 41.5 °F 44.6 °F 93% 29.42 in 6.2 mi SSW 10.4 mph - N/A Rain Light Rain Showers
2:25 PM 48.2 °F - 44.6 °F 87% 29.42 in 6.2 mi SW 11.5 mph - N/A   Overcast
2:55 PM 46.4 °F 41.5 °F 42.8 °F 87% 29.42 in 6.2 mi SW 10.4 mph - N/A   Overcast
3:25 PM 48.2 °F - 41.0 °F 76% 29.44 in 6.2 mi WSW 13.8 mph - N/A   Scattered Clouds
3:55 PM 48.2 °F - 41.0 °F 76% 29.44 in 6.2 mi SW 11.5 mph - N/A   Unknown
4:25 PM 48.2 °F - 41.0 °F 76% 29.47 in 6.2 mi SW 9.2 mph - N/A   Unknown
4:55 PM 46.4 °F 41.9 °F 39.2 °F 76% 29.47 in 6.2 mi SW 9.2 mph - N/A   Unknown
5:25 PM 46.4 °F 41.5 °F 39.2 °F 76% 29.47 in 6.2 mi SW 10.4 mph - N/A   Mostly Cloudy
5:55 PM 46.4 °F 42.4 °F 41.0 °F 81% 29.50 in 6.2 mi SW 8.1 mph - N/A   Mostly Cloudy
6:25 PM 46.4 °F 41.9 °F 41.0 °F 81% 29.50 in 6.2 mi SW 9.2 mph - N/A   Scattered Clouds
6:55 PM 44.6 °F 40.2 °F 39.2 °F 81% 29.53 in 6.2 mi SSW 8.1 mph - N/A   Unknown
7:25 PM 44.6 °F 40.2 °F 39.2 °F 81% 29.53 in 6.2 mi SSW 8.1 mph - N/A   Unknown
7:55 PM 42.8 °F 38.0 °F 41.0 °F 93% 29.53 in 6.2 mi SSW 8.1 mph - N/A   Overcast
8:25 PM 42.8 °F 38.6 °F 41.0 °F 93% 29.53 in 6.2 mi SSW 6.9 mph - N/A   Mostly Cloudy
8:55 PM 42.8 °F 39.3 °F 39.2 °F 87% 29.53 in 6.2 mi SSW 5.8 mph - N/A   Partly Cloudy
9:25 PM 42.8 °F 38.6 °F 39.2 °F 87% 29.56 in 6.2 mi SSW 6.9 mph - N/A   Scattered Clouds
9:55 PM 42.8 °F 38.6 °F 41.0 °F 93% 29.56 in 6.2 mi SSW 6.9 mph - N/A   Scattered Clouds
10:25 PM 42.8 °F 38.0 °F 41.0 °F 93% 29.56 in 6.2 mi SSW 8.1 mph - N/A   Overcast
10:55 PM 42.8 °F 38.0 °F 41.0 °F 93% 29.56 in 6.2 mi SSW 8.1 mph - N/A   Mostly Cloudy
11:25 PM 42.8 °F 38.0 °F 39.2 °F 87% 29.56 in 6.2 mi SSW 8.1 mph - N/A   Scattered Clouds
11:55 PM 41.0 °F 36.4 °F 39.2 °F 93% 29.56 in 6.2 mi SW 6.9 mph - N/A   Scattered Clouds